New Roads False River Regiona, LA

2:06 AM CST on December 16, 2019 (GMT -0600)
False River

Weather History for KHZR - August, 2019

Change the Weather History Date:

Tuesday, August 13, 2019

  Actual Average (KBTR) Record (KBTR)
Temperature  
Mean Temperature 84 °F -  
Max Temperature 93 °F 90 °F 103 °F (2007)
Min Temperature 75 °F 72 °F 60 °F (2004)
Cooling Degree Days 19    
Growing Degree Days 34 (Base 50)    
Moisture  
Dew Point 76 °F    
Average Humidity 79    
Maximum Humidity 100    
Minimum Humidity 56    
Precipitation  
Precipitation 0.00 in - - ()
Sea Level Pressure  
Sea Level Pressure 29.92 in    
Wind  
Wind Speed 1 mph (WNW)    
Max Wind Speed 8 mph    
Max Gust Speed -    
Visibility 10 miles    
Events Thunderstorm    
Averages and records for this station are not official NWS values.
T = Trace of Precipitation, MM = Missing Value Source: NWS Daily Summary

Daily Weather History Graph

Daily Weather History Graph

Search for Another Location

Airport or City:

Astronomy

Aug. 13, 2019 Rise Set
Actual Time 6:30 AM CDT 7:50 PM CDT
Civil Twilight 6:05 AM CDT 8:15 PM CDT
Nautical Twilight 5:35 AM CDT 8:45 PM CDT
Astronomical Twilight 5:03 AM CDT 9:17 PM CDT
Moon 6:57 PM CDT (8/13) 4:41 AM CDT (8/13)
Length of Visible Light 14h 10m
Length of Day
13h 19m
Waxing Gibbous, 97% of the Moon is Illuminated
Aug 13
Waxing Gibbous
Aug 15
Full
Aug 23
Last Quarter
Aug 30
New
Sep 5
First Quarter

Hourly Weather History & Observations

Time (CDT) Temp. Heat Index Dew Point Humidity Pressure Visibility Wind Dir Wind Speed Gust Speed Precip Events Conditions
12:18 AM 80.6 °F 88.1 °F 78.8 °F 94% 29.91 in 10.0 mi Calm Calm - N/A   Clear
12:37 AM 80.6 °F 88.1 °F 78.8 °F 94% 29.92 in 10.0 mi Calm Calm - N/A   Clear
12:56 AM 80.6 °F 88.1 °F 78.8 °F 94% 29.91 in 10.0 mi Calm Calm - N/A   Clear
1:18 AM 78.8 °F - 77.0 °F 94% 29.92 in 10.0 mi Calm Calm - N/A   Clear
1:36 AM 78.8 °F - 77.0 °F 94% 29.91 in 10.0 mi Calm Calm - N/A   Clear
2:16 AM 78.8 °F - 77.0 °F 94% 29.91 in 10.0 mi Calm Calm - N/A   Clear
2:37 AM 78.8 °F - 77.0 °F 94% 29.91 in 10.0 mi Calm Calm - N/A   Clear
2:56 AM 78.8 °F - 77.0 °F 94% 29.91 in 10.0 mi Calm Calm - N/A   Clear
3:16 AM 78.8 °F - 77.0 °F 94% 29.90 in 10.0 mi Calm Calm - N/A   Clear
3:36 AM 78.8 °F - 77.0 °F 94% 29.90 in 10.0 mi Calm Calm - N/A   Clear
3:56 AM 77.0 °F - 77.0 °F 100% 29.90 in 10.0 mi Calm Calm - N/A   Clear
4:16 AM 77.0 °F - 77.0 °F 100% 29.90 in 10.0 mi Calm Calm - N/A   Clear
4:38 AM 77.0 °F - 75.2 °F 94% 29.91 in 10.0 mi Calm Calm - N/A   Clear
4:56 AM 77.0 °F - 77.0 °F 100% 29.91 in 10.0 mi Calm Calm - N/A   Clear
5:16 AM 77.0 °F - 75.2 °F 94% 29.92 in 10.0 mi Calm Calm - N/A   Clear
5:56 AM 77.0 °F - 75.2 °F 94% 29.92 in 10.0 mi Calm Calm - N/A   Clear
6:15 AM 75.2 °F - 75.2 °F 100% 29.92 in 10.0 mi Calm Calm - N/A   Clear
6:37 AM 75.2 °F - 75.2 °F 100% 29.93 in 7.0 mi Calm Calm - N/A   Clear
6:56 AM 75.2 °F - 75.2 °F 100% 29.94 in 7.0 mi Calm Calm - N/A   Clear
7:16 AM 77.0 °F - 77.0 °F 100% 29.94 in 7.0 mi Calm Calm - N/A   Clear
7:36 AM 78.8 °F - 78.8 °F 100% 29.94 in 10.0 mi Calm Calm - N/A   Clear
7:55 AM 80.6 °F 88.1 °F 78.8 °F 94% 29.94 in 10.0 mi Calm Calm - N/A   Clear
8:56 AM 84.2 °F 96.1 °F 78.8 °F 84% 29.96 in 10.0 mi West 5.8 mph - N/A   Clear
9:16 AM 84.2 °F 96.1 °F 78.8 °F 84% 29.97 in 10.0 mi West 3.5 mph - N/A   Clear
9:56 AM 87.8 °F 102.5 °F 78.8 °F 75% 29.96 in 10.0 mi WNW 5.8 mph - N/A   Scattered Clouds
10:16 AM 87.8 °F 102.5 °F 78.8 °F 75% 29.96 in 10.0 mi NW 4.6 mph - N/A   Scattered Clouds
10:36 AM 87.8 °F 102.5 °F 78.8 °F 75% 29.96 in 10.0 mi North - - N/A   Scattered Clouds
10:56 AM 87.8 °F 102.5 °F 78.8 °F 75% 29.97 in 10.0 mi WNW 4.6 mph - N/A   Mostly Cloudy
11:16 AM 89.6 °F 102.2 °F 77.0 °F 66% 29.97 in 10.0 mi NW 4.6 mph - N/A   Scattered Clouds
11:36 AM 89.6 °F 102.2 °F 77.0 °F 66% 29.96 in 10.0 mi Calm Calm - N/A   Scattered Clouds
11:56 AM 89.6 °F 102.2 °F 77.0 °F 66% 29.96 in 10.0 mi WNW 5.8 mph - N/A   Scattered Clouds
12:35 PM 91.4 °F 107.2 °F 78.8 °F 66% 29.95 in 10.0 mi WNW 5.8 mph - N/A   Mostly Cloudy
12:55 PM 91.4 °F 105.1 °F 77.0 °F 63% 29.94 in 10.0 mi West 3.5 mph - N/A   Scattered Clouds
1:15 PM 91.4 °F 105.1 °F 77.0 °F 63% 29.93 in 10.0 mi SW 3.5 mph - N/A   Scattered Clouds
1:36 PM 91.4 °F 105.1 °F 77.0 °F 63% 29.93 in 10.0 mi West 6.9 mph - N/A   Scattered Clouds
1:56 PM 91.4 °F 105.1 °F 77.0 °F 63% 29.92 in 10.0 mi WNW 4.6 mph - N/A   Scattered Clouds
2:16 PM 93.2 °F 107.2 °F 77.0 °F 59% 29.92 in 10.0 mi West 4.6 mph - N/A   Scattered Clouds
2:36 PM 93.2 °F 105.0 °F 75.2 °F 56% 29.91 in 10.0 mi NW 3.5 mph - N/A   Clear
2:55 PM 93.2 °F 105.0 °F 75.2 °F 56% 29.91 in 10.0 mi NW 6.9 mph - N/A   Clear
3:16 PM - - - N/A% 29.91 in 10.0 mi NW 5.8 mph - N/A   Clear
3:36 PM 93.2 °F 105.0 °F 75.2 °F 56% 29.90 in 10.0 mi Calm Calm - N/A   Scattered Clouds
3:56 PM 93.2 °F 105.0 °F 75.2 °F 56% 29.89 in 10.0 mi West 3.5 mph - N/A   Scattered Clouds
4:17 PM 93.2 °F 105.0 °F 75.2 °F 56% 29.89 in 10.0 mi West 6.9 mph - N/A   Clear
4:38 PM 93.2 °F 105.0 °F 75.2 °F 56% 29.87 in 10.0 mi West 5.8 mph - N/A   Clear
4:56 PM 93.2 °F 105.0 °F 75.2 °F 56% 29.88 in 10.0 mi West 4.6 mph - N/A   Clear
5:16 PM 93.2 °F 105.0 °F 75.2 °F 56% 29.89 in 10.0 mi Calm Calm - N/A   Clear
5:36 PM 93.2 °F 105.0 °F 75.2 °F 56% 29.88 in 10.0 mi NW 4.6 mph - N/A   Clear
6:16 PM 93.2 °F 105.0 °F 75.2 °F 56% 29.88 in 10.0 mi WNW 4.6 mph - N/A   Clear
6:36 PM 93.2 °F 105.0 °F 75.2 °F 56% 29.88 in 10.0 mi Calm Calm - N/A Thunderstorm Clear
6:56 PM 91.4 °F 105.1 °F 77.0 °F 63% 29.89 in 10.0 mi Calm Calm - N/A   Clear
7:16 PM 91.4 °F 107.2 °F 78.8 °F 66% 29.89 in 10.0 mi Calm Calm - N/A Thunderstorm Clear
7:37 PM 91.4 °F 107.2 °F 78.8 °F 66% 29.91 in 10.0 mi East 8.1 mph - N/A Thunderstorm Mostly Cloudy
8:15 PM 82.4 °F 88.2 °F 73.4 °F 74% 29.91 in 10.0 mi ESE 6.9 mph - N/A   Mostly Cloudy
8:36 PM 78.8 °F - 75.2 °F 89% 29.89 in 10.0 mi Calm Calm - N/A   Clear
8:56 PM 78.8 °F - 75.2 °F 89% 29.90 in 10.0 mi Calm Calm - N/A   Clear
9:16 PM 78.8 °F - 75.2 °F 89% 29.90 in 10.0 mi Calm Calm - N/A   Clear
9:56 PM 78.8 °F - 75.2 °F 89% 29.91 in 10.0 mi Calm Calm - N/A   Clear
10:16 PM 78.8 °F - 75.2 °F 89% 29.91 in 10.0 mi Calm Calm - N/A   Clear
10:56 PM 80.6 °F 85.4 °F 73.4 °F 79% 29.92 in 10.0 mi Calm Calm - N/A   Clear
11:16 PM 78.8 °F - 73.4 °F 83% 29.93 in 10.0 mi Calm Calm - N/A   Clear
11:36 PM 78.8 °F - 73.4 °F 83% 29.93 in 10.0 mi Calm Calm - N/A   Clear
11:56 PM 78.8 °F - 75.2 °F 89% 29.94 in 10.0 mi Calm Calm - N/A   Clear